• Join FlightAware (Why Join?)
  • Login
  • US Flag 
04:23AM EDT


 

Airport Tracker/Info


-or-


 

Live Flight TrackerFlight Track Log ✈ UAL4543 ✈ 17-Apr-2013 ✈ KEWR - KDSM

Flight Track Log - Related Links

Times and Time Zones

All times are in EDT time to prevent confusion due to time zone crossing. See the UAL4543 flight status page for this flight to view local times or setup timezone preferences in your user account.

Time Position Orientation Groundspeed Altitude Reporting Facility
EDT Latitude Longitude Course Direction KTS MPH feet Rate Location/Type
08:18PM 40.7167 -74.1500 360° North 174 200 1,200  Level New York TRACON
08:19PM 40.7667 -74.1500 360° North 239 275 3,200 2,100 Climbing New York TRACON
08:20PM 40.7833 -74.2333 285° West 249 287 5,700 2,640 Climbing New York TRACON
08:21PM 40.8000 -74.3167 285° West 245 282 8,500 2,580 Climbing New York TRACON
08:22PM 40.8333 -74.3833 303° West 253 291 10,700 1,500 Climbing New York TRACON
08:23PM 40.8500 -74.5000 281° West 296 341 11,600 1,020 Climbing New York TRACON
08:25PM 40.8683 -74.6647 278° West 344 396 13,400 1,380 Climbing New York Center
08:26PM 40.8825 -74.7972 278° West 344 396 15,100 1,500 Climbing New York Center
08:27PM 40.8933 -74.9106 277° West 344 396 16,500 1,320 Climbing New York Center
08:28PM 40.9069 -75.0486 277° West 349 402 17,900 1,440 Climbing New York Center
08:29PM 40.9025 -75.1692 267° West 349 402 19,500 1,380 Climbing New York Center
08:30PM 40.8811 -75.2994 258° West 349 402 20,700 1,560 Climbing New York Center
08:31PM 40.8542 -75.4047 251° West 349 402 22,700 1,740 Climbing New York Center
08:32PM 40.8264 -75.5236 253° West 349 402 24,200 1,440 Climbing New York Center
08:33PM 40.8006 -75.6450 254° West 349 402 25,600 1,380 Climbing New York Center
08:34PM 40.7728 -75.7636 253° West 344 396 27,100 1,440 Climbing New York Center
08:35PM 40.7469 -75.8822 254° West 344 396 28,500 1,200 Climbing New York Center
08:36PM 40.7189 -75.9981 252° West 339 390 29,600 1,140 Climbing New York Center
08:37PM 40.6925 -76.1192 254° West 339 390 30,900 1,200 Climbing New York Center
08:38PM 40.6953 -76.2397 272° West 339 390 32,100 1,260 Climbing New York Center
08:39PM 40.7108 -76.3561 280° West 327 376 33,400 1,200 Climbing New York Center
08:40PM 40.7242 -76.4694 279° West 327 376 34,500 960 Climbing New York Center
08:41PM 40.7375 -76.5828 279° West 322 371 35,400 660 Climbing New York Center
08:42PM 40.7486 -76.6906 278° West 316 364 35,900 240 Climbing New York Center
08:43PM 40.7617 -76.8069 278° West 316 364 36,000  Climbing New York Center
08:44PM 40.7797 -76.9400 280° West 321 369 36,000  Level New York Center
08:45PM 40.7936 -77.0703 278° West 339 390 36,000  Level New York Center
08:46PM 40.8094 -77.2033 279° West 362 417 36,000  Level New York Center
08:47PM 40.8247 -77.3447 278° West 377 434 36,000  Level New York Center
08:49PM 40.8542 -77.6156 278° West 418 481 36,000  Level Cleveland Center
08:50PM 40.8683 -77.7603 277° West 412 474 36,000  Level Cleveland Center
08:51PM 40.8864 -77.9025 280° West 402 463 36,000  Level Cleveland Center
08:52PM 40.9000 -78.0447 277° West 402 463 36,000  Level Cleveland Center
08:53PM 40.9153 -78.1817 278° West 397 457 36,000  Level Cleveland Center
08:54PM 40.9331 -78.3267 279° West 397 457 36,000  Level Cleveland Center
08:55PM 40.9461 -78.4692 277° West 397 457 36,000  Level Cleveland Center
08:56PM 40.9611 -78.6089 278° West 397 457 36,000  Level Cleveland Center
08:57PM 40.9761 -78.7514 278° West 391 450 36,000  Level Cleveland Center
08:58PM 40.9886 -78.8942 277° West 391 450 36,000  Level Cleveland Center
08:59PM 41.0031 -79.0342 278° West 391 450 36,000  Level Cleveland Center
09:00PM 41.0153 -79.1797 276° West 391 450 36,000  Level Cleveland Center
09:01PM 41.0294 -79.3169 278° West 391 450 36,000  Level Cleveland Center
09:02PM 41.0436 -79.4572 278° West 391 450 36,000  Level Cleveland Center
09:03PM 41.0553 -79.5972 276° West 391 450 36,000  Level Cleveland Center
09:04PM 41.0689 -79.7350 278° West 391 450 36,000  Level Cleveland Center
09:05PM 41.0803 -79.8725 276° West 386 444 36,000  Level Cleveland Center
09:06PM 41.0914 -80.0017 277° West 392 451 36,000  Level Cleveland Center
09:07PM 41.1044 -80.1394 277° West 387 445 36,000  Level Cleveland Center
09:08PM 41.1153 -80.2800 276° West 387 445 36,000  Level Cleveland Center
09:09PM 41.1261 -80.4178 276° West 387 445 36,000  Level Cleveland Center
09:10PM 41.1386 -80.5719 276° West 387 445 36,000  Level Cleveland Center
09:11PM 41.1511 -80.7128 277° West 387 445 36,000  Level Cleveland Center
09:12PM 41.1697 -80.8508 280° West 387 445 36,000  Level Cleveland Center
09:13PM 41.1964 -80.9914 284° West 393 452 36,000  Level Cleveland Center
09:14PM 41.2208 -81.1297 283° West 387 445 36,000  Level Cleveland Center
09:15PM 41.2450 -81.2653 283° West 393 452 36,000  Level Cleveland Center
09:16PM 41.2692 -81.4064 283° West 393 452 36,000  Level Cleveland Center
09:17PM 41.2931 -81.5283 285° West 393 452 36,000  Level Cleveland Center
09:18PM 41.3147 -81.6669 282° West 393 452 36,000  Level Cleveland Center
09:19PM 41.3428 -81.8028 285° West 393 452 36,000  Level Cleveland Center
09:20PM 41.3681 -81.9528 283° West 393 452 36,000  Level Cleveland Center
09:21PM 41.3875 -82.0722 282° West 388 447 36,000  Level Cleveland Center
09:22PM 41.4103 -82.2278 281° West 388 447 36,000  Level Cleveland Center
09:23PM 41.4333 -82.3639 283° West 383 441 36,000  Level Cleveland Center
09:24PM 41.4561 -82.4975 283° West 377 434 36,000  Level Cleveland Center
09:25PM 41.4767 -82.6311 282° West 372 428 36,000  Level Cleveland Center
09:26PM 41.4992 -82.7650 283° West 371 427 36,000  Level Cleveland Center
09:27PM 41.5217 -82.9017 282° West 371 427 36,000  Level Cleveland Center
09:28PM 41.5400 -83.0189 282° West 371 427 36,000  Level Cleveland Center
09:29PM 41.5619 -83.1558 282° West 376 433 36,000  Level Cleveland Center
09:30PM 41.6069 -83.2908 294° West 366 421 36,000  Level Cleveland Center
09:31PM 41.6708 -83.4047 307° West 366 421 36,000  Level Cleveland Center
09:32PM 41.7369 -83.5161 309° West 378 435 36,000  Level Cleveland Center
09:33PM 41.8028 -83.6278 308° West 383 441 36,000  Level Cleveland Center
09:34PM 41.8606 -83.7253 309° West 383 441 36,000  Level Cleveland Center
09:35PM 41.9306 -83.8350 311° West 378 435 36,000  Level Cleveland Center
09:36PM 42.0003 -83.9419 311° West 386 444 36,000  Level Cleveland Center
09:37PM 42.0425 -84.0728 294° West 386 444 36,000  Level Cleveland Center
09:38PM 42.0758 -84.2033 289° West 373 429 36,000  Level Cleveland Center
09:39PM 42.1114 -84.3314 291° West 356 410 36,000  Level Cleveland Center
09:40PM 42.1369 -84.4392 288° West 346 398 36,000  Level Cleveland Center
09:41PM 42.1725 -84.5592 292° West 341 392 36,000  Level Cleveland Center
09:42PM 42.2136 -84.6936 292° West 346 398 36,000  Level Cleveland Center
09:44PM 42.2908 -84.9528 292° West 378 435 36,000  Level Chicago Center
09:45PM 42.2881 -85.0872 268° West 363 418 36,000  Level Chicago Center
09:46PM 42.2867 -85.2192 269° West 354 407 36,000  Level Chicago Center
09:47PM 42.2847 -85.3550 269° West 360 414 36,000  Level Chicago Center
09:48PM 42.2825 -85.4919 269° West 364 419 36,000  Level Chicago Center
09:49PM 42.2811 -85.6278 269° West 361 415 36,000  Level Chicago Center
09:50PM 42.2789 -85.7622 269° West 359 413 36,000  Level Chicago Center
09:51PM 42.2764 -85.8994 269° West 363 418 36,000  Level Chicago Center
09:52PM 42.2656 -86.0436 264° West 358 412 36,000  Level Chicago Center
09:53PM 42.2558 -86.1778 264° West 360 414 36,000  Level Chicago Center
09:54PM 42.2450 -86.3144 264° West 366 421 36,000  Level Chicago Center
09:55PM 42.2333 -86.4550 264° West 375 432 36,000  Level Chicago Center
09:56PM 42.2228 -86.5967 264° West 381 438 36,000  Level Chicago Center
09:57PM 42.2108 -86.7586 264° West 379 436 36,000  Level Chicago Center
09:58PM 42.2014 -86.8964 265° West 375 432 36,000  Level Chicago Center
09:59PM 42.1886 -87.0275 263° West 361 415 36,000  Level Chicago Center
10:00PM 42.1906 -87.1567 271° West 354 407 36,000  Level Chicago Center
10:01PM 42.2328 -87.2819 295° West 370 426 36,000  Level Chicago Center
10:02PM 42.2756 -87.4117 294° West 377 434 36,000  Level Chicago Center
10:03PM 42.3297 -87.5692 295° West 387 445 36,000  Level Chicago Center
10:04PM 42.3739 -87.7039 294° West 392 451 36,000  Level Chicago Center
10:05PM 42.3958 -87.8425 282° West 384 442 36,000  Level Chicago Center
10:06PM 42.3703 -87.9756 255° West 363 418 36,000  Level Chicago Center
10:07PM 42.3511 -88.1133 259° West 368 423 36,000  Level Chicago Center
10:08PM 42.3319 -88.2489 259° West 367 422 36,000  Level Chicago Center
10:09PM 42.3139 -88.3775 259° West 365 420 36,000  Level Chicago Center
10:10PM 42.2947 -88.5131 259° West 369 425 36,000  Level Chicago Center
10:11PM 42.2756 -88.6478 259° West 369 425 36,000  Level Chicago Center
10:12PM 42.2522 -88.8125 259° West 374 430 36,000  Level Chicago Center
10:13PM 42.2336 -88.9353 258° West 377 434 36,000  Level Chicago Center
10:14PM 42.2136 -89.0736 259° West 375 432 36,000  Level Chicago Center
10:15PM 42.1894 -89.2364 259° West 379 436 36,000  Level Chicago Center
10:16PM 42.1692 -89.3728 259° West 373 429 36,000  Level Chicago Center
10:17PM 42.1489 -89.5069 259° West 367 422 36,000  Level Chicago Center
10:18PM 42.1289 -89.6397 259° West 363 418 36,000  Level Chicago Center
10:19PM 42.1086 -89.7717 258° West 360 414 36,000  Level Chicago Center
10:20PM 42.0897 -89.8986 259° West 350 403 36,000  Level Chicago Center
10:21PM 42.0714 -90.0114 258° West 343 395 36,000  Level Chicago Center
10:22PM 42.0522 -90.1369 258° West 346 398 36,000  Level Chicago Center
10:23PM 42.0267 -90.2989 258° West 368 423 36,000  Level Chicago Center
10:24PM 42.0044 -90.4361 258° West 377 434 36,000  Level Chicago Center
10:26PM 41.9831 -90.5725 258° West 375 432 36,000  Level Chicago Center
10:27PM 41.9589 -90.7150 257° West 391 450 36,000  Level Chicago Center
10:28PM 41.9358 -90.8508 257° West 379 436 36,000  Level Chicago Center
10:29PM 41.9133 -90.9889 258° West 381 438 36,000  Level Chicago Center
10:30PM 41.8897 -91.1308 257° West 390 449 36,000  Level Chicago Center
10:31PM 41.8664 -91.2722 258° West 390 449 36,000  Level Chicago Center
10:32PM 41.8414 -91.4142 257° West 392 451 36,000  Level Chicago Center
10:33PM 41.8186 -91.5528 258° West 385 443 36,000  Level Chicago Center
10:34PM 41.7950 -91.6889 257° West 377 434 36,000 -420 Level Chicago Center
10:35PM 41.7656 -91.8544 257° West 383 441 35,200 -1,140 Descending Chicago Center
10:36PM 41.7425 -91.9914 257° West 381 438 33,700 -1,740 Descending Chicago Center
10:37PM 41.7175 -92.1278 256° West 380 437 31,700 -2,280 Descending Chicago Center
10:38PM 41.6936 -92.2686 257° West 388 447 29,100 -2,880 Descending Chicago Center
10:39PM 41.6678 -92.4078 256° West 388 447 25,900 -3,240 Descending Chicago Center
10:40PM 41.6436 -92.5450 257° West 384 442 22,600 -3,120 Descending Chicago Center
10:41PM 41.6169 -92.6892 256° West 376 433 19,200 -2,760 Descending Minneapolis Center
10:42PM 41.5906 -92.8322 256° West 338 389 16,600 -2,340 Descending Minneapolis Center
10:43PM 41.5697 -92.9517 257° West 308 354 14,500 -2,040 Descending Minneapolis Center
10:44PM 41.5514 -93.0497 256° West 277 319 12,500 -1,740 Descending Minneapolis Center
10:45PM 41.5339 -93.1411 256° West 256 295 11,000 -1,500 Descending Minneapolis Center
10:46PM 41.5147 -93.2233 253° West 235 270 9,500 -1,500 Descending Minneapolis Center
10:47PM 41.5008 -93.2972 256° West 210 242 8,000 -1,560 Descending Minneapolis Center
10:48PM 41.4825 -93.3739 252° West 203 234 6,400 -960 Descending Minneapolis Center
10:49PM 41.4722 -93.4314 257° West 192 221 6,100 -120 Descending Minneapolis Center
10:50PM 41.4481 -93.4864 240° Southwest 174 200 6,200  Climbing Minneapolis Center
10:51PM 41.4242 -93.5469 242° Southwest 183 211 6,100 -600 Descending Minneapolis Center
10:52PM 41.4003 -93.6075 242° Southwest 186 214 5,000 -1,140 Descending Minneapolis Center
10:53PM 41.3725 -93.6767 242° Southwest 205 236 3,900 -900 Descending Minneapolis Center
10:54PM 41.3639 -93.7525 261° West 221 254 3,200 -420 Descending Minneapolis Center
10:55PM 41.3933 -93.8361 295° West 226 260 3,100 -60 Descending Minneapolis Center
10:56PM 41.4447 -93.8200 13° North 214 246 3,100  Level Minneapolis Center